Regional Weather Roundup
Issued by NWS State College, PA

Home | Current Version | Previous Version | Graphics & Text | Print | Product List | Glossary Off
Versions: 1 2 3 4 5 6 7 8 9 10 11 12 13 14 15 16 17 18 19 20 21 22 23 24 25 26 27 28 29 30 31 32 33 34 35 36 37 38 39 40 41 42 43 44 45 46 47 48 49 50

000
ASUS41 KCTP 272203
RWRCTP

REGIONAL WEATHER ROUNDUP
NATIONAL WEATHER SERVICE STATE COLLEGE PA
600 PM EDT WED JUL 27 2016

Note: "fair" indicates few or no clouds below 12,000 feet with no
significant weather and/or obstructions to visibility.

* = STATION THAT DOES NOT REPORT PRECIPITATION /E.G. RAIN...SNOW...ETC/
    THUNDER OR FOG.

PAZ002>004-007>009-013>016-020>023-029>032-272300-
WESTERN PENNSYLVANIA

CITY           SKY/WX    TMP DP  RH WIND       PRES   REMARKS
ERIE           SUNNY     84  65  52 W5        29.96F
MEADVILLE      SUNNY     82  57  42 W6        29.98F
FRANKLIN*      SUNNY     84  59  42 N6        29.99F
NEW CASTLE     FAIR      87  59  38 NW3       29.96F
BEAVER COUNTY  SUNNY     88  59  37 N6        29.96F
BUTLER*        SUNNY     86  59  39 N3        29.99F
PITTSBURGH INT MOSUNNY   87  57  35 W6        29.95F
PITTSBURGH     MOSUNNY   87  59  38 NE5       29.95F
INDIANA*       SUNNY     88  57  35 NW7       30.00F
LATROBE        MOSUNNY   86  59  39 VRB7      29.97F
WASHINGTON CO* PTSUNNY   88  64  45 S3        29.97S
$$

PAZ004>006-010>012-017>019-024>028-033>037-041-042-045-046-049>053-272300-
CENTRAL PENNSYLVANIA

CITY           SKY/WX    TMP DP  RH WIND       PRES   REMARKS
BRADFORD       SUNNY     79  59  50 SW3       30.01F
DUBOIS         SUNNY     85  54  34 N3        29.99S
CLEARFIELD     SUNNY     88  53  30 VRB3      29.97F
JOHNSTOWN      SUNNY     84  53  34 W7        30.02S
ALTOONA        MOSUNNY   90  51  26 W6        29.97S
STATE COLLEGE  MOSUNNY   86  57  37 CALM      29.95F
WILLIAMSPORT   SUNNY     91  53  27 SW3       29.89F
SELINSGROVE    SUNNY     89  65  44 E5        29.91F
FT INDIANTOWN  SUNNY     89  60  36 VRB1      29.91
CAPITAL CITY   MOSUNNY   91  59  33 W3        29.90F
HARRISBURG     MOSUNNY   90  65  43 SE5       29.90S
YORK           SUNNY     89  64  43 SE6       29.92S
$$

PAZ038>040-043-044-047-048-054-055-060>062-067>071-272300-
EASTERN PENNSYLVANIA

CITY           SKY/WX    TMP DP  RH WIND       PRES   REMARKS
SCRANTON       MOSUNNY   89  58  34 NW8       29.93F
MOUNT POCONO   SUNNY     80  56  43 NW7       29.99F
ALLENTOWN      SUNNY     89  57  33 SW5       29.91F
QUAKERTOWN*    CLEAR     90  61  37 CALM      29.93S
READING        MOSUNNY   92  59  33 NW7       29.89F
LANCASTER      SUNNY     88  58  36 N6        29.91F
COATESVILLE    CLEAR     86  64  48 NW5       29.95S
POTTSTOWN      SUNNY     89  59  36 CALM      29.92F
BLUE BELL      MOSUNNY   88  63  42 CALM      29.89F
DOYLESTOWN     SUNNY     86  61  42 VRB3      29.90F
WILLOW GROVE   NOT AVBL
NORTH PHILA    MOSUNNY   91  64  40 E3        29.90F
PHILADELPHIA   MOSUNNY   93  62  35 W9        29.89F
$$



USA.gov is the U.S. government's official web portal to all federal, state and local government web resources and services.